Back to catalog

ATLAS CENTAUR R/B

AliveHEO
NORAD 12445·ROCKET BODY·🇺🇸 United States

Launched Dec 6, 1980 from Cape Canaveral Space Force Station

Loading…

Next Passes (next 24 hours)

TLE

FreshSource: Space-Track

Epoch: Sep 14, 2026, 11:14 UTC

1 12445U 80098B   26257.46849376  .00005163  00000-0  10458-2 0  9995
2 12445  23.6304 226.0969 4088077 327.0203  13.0616  7.15329328 70476

Track ATLAS CENTAUR R/B in real time with AllMySat

Download on the App Store